TIME,DELAY(SENSOR),PRES,T(CTD),SAL,OXYGEN,RAWTEMP,T(OPTODE),TCPHASE,FLUOR,BETA(BETA700),BETA(BETA412),BETA(BETA440),CDOM,C(CSC),ED(ED411.90),ED(ED443.80),ED(ED489.40),ED(ED554.70),LU(LU412.20),LU(LU443.80),LU(LU489.40),LU(LU555.00),COMP,TILTX,TILTX(TILTY),CHECK
1349622731,5804,495.1900024414062500,16.9983005523681640,36.3662986755371100,221.2444000244140600,187.8240966796875000,17.0153903961181640,31.8666095733642580,50,102,83,62,50,13042,2146957476,2147514870,2147266578,2147464777,2147081554,2146947821,2147660653,2147120411,2463,-1,8,3769
1349622851,5806,484.0299987792969000,17.1298999786376950,36.3903007507324200,223.3607025146484400,184.0193939208984400,17.1301193237304700,31.7044296264648440,50,101,82,63,50,13043,2146957723,2147516845,2147265773,2147469312,2147085037,2146953508,2147659090,2147120036,1804,-1,8,52276
1349622964,5802,473.6700134277344000,17.2448005676269530,36.4137001037597660,225.4132995605468800,180.4450073242187500,17.2379093170166000,31.5501594543457030,50,99,83,62,50,13043,2146956891,2147514203,2147268416,2147469074,2147086857,2146956918,2147655003,2147126171,1567,-2,8,2764
1349623095,5806,462.0299987792969000,17.3621997833251950,36.4361000061035160,227.3184051513672000,176.2574005126953000,17.3642196655273440,31.3961791992187500,51,101,83,61,50,13042,2146958125,2147516726,2147267675,2147467081,2147086144,2146954587,2147658761,2147120658,703,-1,8,63394
1349623217,5805,451.5599975585937500,17.4535007476806640,36.4547996520996100,229.5619964599609400,173.4568023681640600,17.4487094879150400,31.2458305358886720,50,102,83,60,50,13039,2146957248,2147515254,2147265929,2147465179,2147085952,2146958738,2147656256,2147127305,3248,-1,8,59575
1349623348,5802,440.6799926757812500,17.5174007415771500,36.4674987792968750,230.6651000976562500,170.7001953125000000,17.5318794250488280,31.1537609100341800,50,100,83,62,50,13042,2146958875,2147515227,2147268672,2147464411,2147086720,2146962770,2147658660,2147127040,2431,-1,8,63623
1349623490,5804,429.0899963378906000,17.6233005523681640,36.4869003295898440,231.6979980468750000,167.8713989257812500,17.6172409057617200,31.0644893646240230,51,102,83,61,50,13042,2146954496,2147515958,2147267922,2147464301,2147084333,2146961901,2147652004,2147126665,2138,-1,8,13169
1349623625,5805,418.2200012207031000,17.6847000122070300,36.4976005554199200,232.8511047363281200,165.7597961425781200,17.6809692382812500,30.9794807434082030,50,100,82,60,50,13042,2146956013,2147515392,2147267446,2147465654,2147085019,2146960173,2147658486,2147125266,1161,-2,8,6572
1349623756,5807,407.7000122070312500,17.7572994232177730,36.5130004882812500,234.2456970214843800,163.3099975585937500,17.7549095153808600,30.8785495758056640,50,100,84,61,50,13043,2146956580,2147513426,2147268269,2147462656,2147085568,2146955227,2147656438,2147121618,474,-1,8,11488
1349623889,5804,396.7900085449219000,17.8474006652832030,36.5285987854003900,235.2503967285156200,160.2236022949218800,17.8480892181396500,30.7884407043457030,50,100,83,61,50,13044,2146954285,2147513536,2147266112,2147463222,2147088091,2146960027,2147656777,2147126436,2875,-1,8,37044
1349624031,5805,384.9800109863281000,17.9022998809814450,36.5377998352050800,236.1869049072265600,158.5975952148437500,17.8971805572509770,30.7215995788574220,50,99,82,61,50,13041,2146957257,2147516717,2147265892,2147464384,2147085668,2146961865,2147652342,2147127524,2962,-2,8,4644
1349624153,5805,374.4500122070312500,17.9437999725341800,36.5449981689453100,236.1790924072265600,157.0901947021484400,17.9426898956298830,30.7018795013427730,50,101,83,61,51,13041,2146958747,2147515309,2147267282,2147462710,2147083620,2146957376,2147648073,2147122907,2027,-1,8,22845
1349624277,5807,363.4200134277344000,17.9978008270263670,36.5523986816406250,236.3448028564453000,155.3144989013672000,17.9963207244873050,30.6702308654785160,50,101,83,62,50,13040,2146954816,2147518208,2147266212,2147461760,2147077952,2146960804,2147658797,2147124004,1755,-2,8,44356
1349624408,5804,351.8999938964844000,18.0454006195068360,36.5595016479492200,236.2095031738281200,153.8195037841797000,18.0414695739746100,30.6565208435058600,50,101,83,62,50,13039,2146956909,2147516662,2147266176,2147459675,2147086299,2146962861,2147656329,2147125156,1071,-2,8,7253
1349624530,5804,341.3200073242187500,18.0974006652832030,36.5649986267089840,235.6085968017578000,152.1018066406250000,18.0933494567871100,30.6625308990478500,50,101,83,62,50,13038,2146958564,2147515565,2147266980,2147460086,2147084141,2146960603,2147656932,2147127954,325,-1,8,7098
1349624661,5807,330.3500061035156000,18.1522998809814450,36.5730018615722660,235.5390014648437500,150.1598968505859400,18.1520099639892580,30.6398506164550780,50,100,82,62,51,13037,2146958619,2147516662,2147269476,2147457865,2147085010,2146963977,2147655853,2147125531,324,-2,8,60921
1349624803,5802,319.4200134277344000,18.2049999237060550,36.5789985656738300,235.2315063476562500,148.5030975341797000,18.2020606994628900,30.6326808929443360,50,101,83,61,50,13036,2146958592,2147516397,2147265225,2147459346,2147088740,2146962678,2147659693,2147130102,2816,-1,8,8854
1349624949,5805,308.8599853515625000,18.2570991516113280,36.5835990905761700,234.5191955566406200,146.7286987304687500,18.2556800842285160,30.6432590484619140,50,101,83,62,50,13037,2146957302,2147515245,2147265243,2147458194,2147088475,2146967990,2147658834,2147128301,2516,-2,9,1190
1349625102,5804,297.9599914550781000,18.3180999755859380,36.5904006958007800,233.5836944580078000,144.8374023437500000,18.3128299713134770,30.6633491516113280,50,103,83,61,50,13035,2146955172,2147515410,2147267465,2147459044,2147077394,2146961956,2147667099,2147128877,1659,-1,8,32150
1349625246,5805,285.8500061035156000,18.4216003417968750,36.5980987548828100,231.9203033447265600,141.4833068847656200,18.4141998291015620,30.6993503570556640,50,102,83,61,50,13037,2146956717,2147518290,2147264246,2147459602,2147086793,2146965284,2147670848,2147129142,866,-1,8,43569
1349625355,5805,275.1499938964844000,18.4741992950439450,36.5985984802246100,229.9384002685547000,139.8370056152343800,18.4639701843261720,30.7747097015380860,51,102,82,62,50,13033,2146954953,2147512301,2147267373,2147457444,2147077824,2146974418,2147678299,2147129746,442,-1,8,85
1349625464,5802,264.4200134277344000,18.5955009460449220,36.6091003417968750,228.3361968994140600,135.7861938476562500,18.5864505767822270,30.7997798919677730,50,103,82,62,50,13032,2146955373,2147515209,2147266084,2147458057,2147082642,2146974637,2147685394,2147127707,3118,-1,8,65473
1349625577,5805,253.5000000000000000,18.6770992279052730,36.6105995178222660,227.6040039062500000,133.0597991943359400,18.6689090728759770,30.7997798919677730,50,101,82,62,50,13038,2146958902,2147516525,2147263744,2147455890,2147083785,2146981293,2147694573,2147129526,2237,-1,8,1622
1349625697,5804,242.0800018310547000,18.7831001281738280,36.6095008850097660,226.7864074707031200,129.0820007324218800,18.7892494201660160,30.7875194549560550,51,100,83,61,50,13038,2146957723,2147517266,2147264073,2147458733,2147080694,2146983177,2147710363,2147128210,1437,-2,9,23163
1349625817,5803,230.9100036621093800,18.9479007720947270,36.6115989685058600,227.7908020019531200,123.7583007812500000,18.9503707885742200,30.6668605804443360,51,102,82,61,50,13033,2146956626,2147512722,2147268534,2147459684,2147081261,2146989824,2147729142,2147131702,1179,-2,8,20556
1349625930,5803,220.3399963378906200,19.1070003509521500,36.6062011718750000,231.4212036132812500,118.7734985351562500,19.1012992858886720,30.4225406646728500,53,103,83,61,50,13032,2146955008,2147515264,2147267382,2147458386,2147083510,2147012315,2147759040,2147134125,531,-2,8,11615
1349626050,5805,209.1100006103515600,19.1826000213623050,36.6003990173339840,235.6582031250000000,116.1434020996093800,19.1809597015380860,30.1840991973876950,52,101,82,61,50,13030,2146956745,2147519094,2147268022,2147459236,2147084726,2147031149,2147802486,2147136438,3172,-1,9,56354
1349626170,5806,197.7799987792968800,19.2422008514404300,36.5895996093750000,239.5771942138672000,114.1112976074218800,19.2425308227539060,29.9731407165527340,53,101,84,62,50,13034,2146955958,2147516882,2147270555,2147454107,2147093001,2147062838,2147856475,2147140800,3057,-1,9,16471
1349626244,5803,191.1300048828125000,19.2607002258300780,36.5815010070800800,242.0046997070312500,113.6995010375976600,19.2549991607666000,29.8553199768066400,52,103,82,61,50,13032,2146953782,2147518756,2147270957,2147453595,2147095332,2147087104,2147899117,2147143469,3060,-2,9,59740
1349626298,5805,186.5000000000000000,19.2565002441406250,36.5740013122558600,243.2073059082031200,113.8001022338867200,19.2519493103027340,29.8013591766357420,52,101,82,61,50,13035,2146954011,2147517120,2147271954,2147453394,2147094171,2147105481,2147933138,2147144228,2905,-2,9,4139
1349626352,5804,181.9600067138672000,19.2632007598876950,36.5702018737793000,244.3538970947265600,113.4964981079101600,19.2611598968505860,29.7453002929687500,53,102,81,61,50,13034,2146953874,2147520466,2147275657,2147457179,2147105408,2147122212,2147967168,2147148114,2898,-1,9,63975
1349626406,5805,177.5200042724609400,19.2854003906250000,36.5638008117675800,245.1820983886718800,112.7555999755859400,19.2836093902587900,29.6982307434082030,54,103,83,61,50,13033,2146958308,2147518116,2147272137,2147454646,2147102994,2147141083,2147997476,2147148233,3003,-1,9,48316
1349626460,5804,173.1900024414062500,19.3125000000000000,36.5663986206054700,245.5657958984375000,111.9705963134765600,19.3073902130126950,29.6703891754150400,55,104,83,61,50,13032,2146954368,2147524233,2147279716,2147456100,2147106038,2147169060,2148059273,2147151058,2855,-1,9,61768
1349626514,5802,169.0500030517578000,19.3267993927001950,36.5634002685546900,245.7012023925781200,111.3486022949218800,19.3262405395507800,29.6563491821289060,55,103,83,61,50,13028,2146955538,2147522925,2147279917,2147454436,2147112009,2147207689,2148121764,2147157010,2435,-2,9,45131
1349626592,5802,163.7299957275390600,19.3666000366210940,36.5674018859863300,245.8726043701172000,110.2014999389648400,19.3610095977783200,29.6335697174072270,57,107,81,61,50,13025,2146955200,2147524571,2147276096,2147451273,2147110976,2147191954,2148071872,2147153673,2138,-2,9,39558
1349626657,5805,160.1199951171875000,19.3931999206542970,36.5698013305664060,245.7967071533203000,109.1677017211914000,19.3923492431640620,29.6236705780029300,59,107,83,62,50,13024,2146953371,2147524269,2147276096,2147451894,2147113060,2147206372,2148089709,2147152109,2136,-2,9,19788
1349626733,5803,156.2100067138672000,19.4498996734619140,36.5761985778808600,245.8143005371093800,107.2851028442382800,19.4494209289550780,29.5986309051513670,61,107,83,63,50,13021,2146958875,2147525714,2147280996,2147454098,2147125814,2147256923,2148172214,2147156205,2119,-2,9,64278
1349626809,5805,152.5500030517578000,19.4920005798339840,36.5807991027832000,245.9631958007812500,106.0475997924804700,19.4869403839111330,29.5758590698242200,63,106,83,61,50,13020,2146958912,2147528557,2147281289,2147454116,2147117504,2147245202,2148145060,2147155968,2135,-2,9,55173
1349626898,5805,148.3300018310547000,19.5238990783691400,36.5854988098144500,245.8379058837890600,104.9341964721679700,19.5207004547119140,29.5671806335449220,64,110,84,63,50,13015,2146958272,2147526701,2147284781,2147453138,2147143515,2147333952,2148299328,2147172836,2102,-2,9,34339
1349626974,5807,144.4700012207031200,19.5900001525878900,36.5931015014648440,245.1045074462890600,102.8464965820312500,19.5840206146240230,29.5731391906738280,65,110,82,62,50,13014,2146957604,2147527140,2147284571,2147452160,2147145152,2147331556,2148258358,2147164333,1860,-2,9,4365
1349627050,5801,140.2899932861328000,19.6814002990722660,36.6012992858886700,245.1067047119140600,100.0408020019531200,19.6691398620605470,29.5367107391357420,72,111,84,62,50,13012,2146959186,2147526381,2147287570,2147452196,2147162377,2147383524,2148347227,2147170240,1988,-1,9,11864
1349627126,5806,135.9499969482422000,19.7467002868652340,36.6085014343261700,245.1802062988281200,97.7093887329101600,19.7398891448974600,29.5033702850341800,72,115,83,62,50,13006,2146960073,2147530825,2147293257,2147452105,2147194870,2147518820,2148537481,2147183689,2393,-2,9,42837
1349627184,5801,132.5000000000000000,19.7791004180908200,36.6105003356933600,245.4830017089843800,96.5472106933593800,19.7751598358154300,29.4746894836425780,76,114,83,63,50,13005,2146960786,2147536320,2147298550,2147448749,2147208475,2147574710,2148627483,2147193920,2595,-2,9,14393
1349627260,5805,127.9599990844726600,19.8458995819091800,36.6164016723632800,245.6371002197265600,94.3069534301757800,19.8431701660156250,29.4389705657959000,78,117,84,61,50,13006,2146959378,2147531117,2147296146,2147451090,2147217051,2147560027,2148558848,2147189513,2354,-1,9,20543
1349627325,5805,124.2699966430664000,19.8953990936279300,36.6185989379882800,245.7183074951172000,92.7598266601562500,19.8901405334472660,29.4152793884277340,81,116,84,60,50,12996,2146957769,2147533568,2147297819,2147451392,2147227812,2147550857,2148498934,2147190372,2542,-2,9,34221
1349627401,5802,120.4499969482421900,19.9757003784179700,36.6227989196777340,246.6508941650390600,90.1936569213867200,19.9680805206298830,29.3407402038574220,85,114,83,61,51,12991,2146960905,2147537398,2147303744,2147449472,2147271067,2147686976,2148677357,2147201216,2497,-1,9,41740
1349627490,5805,116.8099975585937500,20.0981998443603500,36.6325988769531250,246.4205932617187500,85.6865768432617200,20.1050205230712900,29.2930793762207030,92,116,85,63,50,12994,2146961974,2147540534,2147309732,2147452470,2147317302,2147803492,2148851126,2147212077,2880,-1,9,27493
1349627610,5805,113.0599975585937500,20.2842006683349600,36.6539001464843750,245.0350952148437500,80.1466598510742200,20.2734394073486330,29.2841892242431640,101,119,83,62,51,12988,2146965403,2147540690,2147308233,2147448886,2147335222,2147780288,2148761033,2147209856,2534,-1,9,20218
1349627731,5808,108.9300003051757800,20.4580001831054700,36.6698989868164060,243.2841033935547000,74.6620025634765600,20.4402904510498050,29.2929191589355470,108,122,85,63,50,12972,2146965046,2147542784,2147311936,2147449252,2147386166,2147876461,2148865078,2147218953,2750,-1,9,63574
1349627828,5804,104.5699996948242200,20.4857006072998050,36.6549987792968750,243.4819030761718800,72.6759719848632800,20.5007305145263670,29.2586097717285160,114,121,84,62,50,12966,2146966034,2147553252,2147325120,2147450221,2147494317,2148127945,2149195565,2147246098,2946,-2,9,24574
1349627904,5805,100.6100006103515600,20.6858005523681640,36.6650009155273440,245.1533966064453000,66.1127395629882800,20.7006092071533200,29.0997791290283200,125,121,85,63,50,12952,2146975213,2147573732,2147359798,2147451081,2147715593,2148672054,2149930624,2147313152,2490,-2,9,35973
1349627958,5807,98.1399993896484400,20.7961006164550780,36.6776008605957000,246.0032043457031200,63.4716110229492200,20.7810897827148440,29.0281791687011720,137,126,85,62,50,12940,2146982427,2147577709,2147367917,2147452562,2147792128,2148811227,2150083126,2147328987,2641,-1,9,3090
1349628014,5804,95.8399963378906200,20.9402008056640620,36.6883010864257800,246.8917999267578000,58.6887702941894500,20.9269008636474600,28.9281806945800780,144,124,84,63,50,12927,2146990674,2147601700,2147398226,2147450386,2148041536,2149408987,2150891300,2147398747,2591,-2,9,30407
1349628070,5807,93.6900024414062500,20.9965991973876950,36.6839981079101560,248.4709930419922000,56.3650093078613300,20.9977798461914060,28.8290901184082030,146,126,85,61,50,12918,2146998710,2147615606,2147421869,2147454884,2148230180,2149776173,2151338861,2147442560,2672,-1,9,42782
1349628128,5805,91.5100021362304700,21.1175994873046880,36.6847000122070300,250.1174926757812500,52.9339599609375000,21.1024799346923830,28.7137393951416000,149,126,86,63,50,12909,2147010770,2147635355,2147454564,2147456457,2148485330,2150305060,2151995446,2147507629,2926,-2,9,43174
1349628184,5804,89.5199966430664000,21.2443008422851560,36.6992988586425800,251.0487060546875000,49.0603408813476560,21.2207508087158200,28.6245899200439450,149,127,86,63,50,12909,2147013174,2147636224,2147457334,2147454793,2148568877,2150406957,2152067291,2147519122,2459,-3,7,9157
1349628240,5807,88.1200027465820300,21.2879009246826170,36.6820983886718750,251.0529022216797000,47.1608505249023440,21.2787609100341800,28.6004295349121100,152,125,85,62,49,12892,2147019885,2147641874,2147464676,2147454582,2148649901,2150483181,2152095936,2147531584,2669,-2,9,58569
1349628362,5805,86.7500000000000000,21.4575996398925780,36.6740989685058600,254.0610046386718800,42.3589286804199200,21.4255104064941400,28.4111309051513670,118,120,85,64,50,12919,2147070070,2147744466,2147622354,2147461641,2149784402,2153033316,2155392585,2147838427,3179,-2,9,44839
1349628497,5805,83.9800033569336000,21.6849994659423830,36.6666984558105500,257.6730957031250000,34.2680587768554700,21.6730098724365230,28.1576194763183600,96,121,84,63,50,12929,2147116973,2147825536,2147725339,2147469010,2150898340,2155210468,2157830518,2148080018,2983,-2,9,4660
1349628553,5806,82.0500030517578100,21.7660007476806640,36.6731986999511700,259.1151123046875000,31.6449298858642580,21.7533092498779300,28.0649890899658200,94,121,86,63,50,12927,2147128768,2147844041,2147737572,2147470354,2151204818,2155512813,2157841289,2148090550,3046,-2,9,35092
1349628620,5802,80.0000000000000000,21.8311996459960940,36.6726989746093750,260.8400878906250000,29.5321292877197270,21.8180198669433600,27.9675598144531250,92,122,85,63,50,12927,2147144457,2147854930,2147733449,2147471058,2151469476,2155687186,2157607442,2148087469,3301,-2,9,10065
1349628687,5802,78.4599990844726600,21.9531002044677730,36.6543006896972660,261.7049865722656000,25.8779296875000000,21.9300003051757800,27.8866996765136720,91,122,85,63,50,12924,2147159350,2147874477,2147730203,2147469430,2151848859,2156221302,2157942189,2148124690,2768,-2,9,11452
1349628798,5806,76.2699966430664000,22.3215999603271500,36.6637992858886700,261.0003051757812500,13.8174495697021480,22.3000392913818360,27.7668304443359380,86,124,86,63,50,12914,2147240484,2147999259,2147874697,2147474130,2153735698,2159524416,2161334829,2148462427,2104,-2,9,55676
1349628898,5808,74.4300003051757800,22.4279003143310550,36.6666984558105500,257.8045043945312500,10.1875400543212890,22.4115695953369140,27.8539695739746100,87,121,85,63,50,12915,2147298678,2148094354,2147976804,2147480621,2155036608,2161699382,2163470884,2148670390,1865,-1,9,16593
1349629009,5803,72.3499984741211000,22.5421009063720700,36.6581001281738300,256.6630859375000000,6.4331169128417970,22.5270004272460940,27.8552398681640620,86,124,85,63,50,12907,2147353673,2148167597,2148024914,2147482386,2156309430,2163478774,2164675209,2148804114,2111,-2,9,41711
1349629098,5806,69.9899978637695300,22.6081008911132800,36.6263008117675800,257.5927124023437500,3.1988561153411865,22.6264991760253900,27.7766208648681640,81,128,87,63,50,12908,2147481792,2148338139,2148220160,2147496731,2159075977,2167780269,2168576521,2149208731,2801,-1,9,19494
1349629154,5803,68.2300033569336000,22.7740001678466800,36.6017990112304700,259.9042968750000000,-1.0447469949722290,22.7571392059326170,27.6291007995605470,80,126,87,63,50,12905,2147577490,2148452324,2148334454,2147506194,2161363355,2171130212,2171474569,2149523437,2993,-2,9,21201
1349629243,5808,66.1600036621093800,22.8750991821289060,36.5901985168457000,261.8341064453125000,-4.8114628791809080,22.8731803894042970,27.5042591094970700,78,127,86,64,50,12903,2147603053,2148441472,2148265563,2147497920,2161781952,2170659273,2170015186,2149373248,2654,-1,9,56192
1349629310,5804,64.2900009155273400,23.0858993530273440,36.5742988586425800,263.4554138183594000,-10.8640699386596680,23.0598201751709000,27.3647098541259770,75,129,87,63,49,12902,2147849618,2148787035,2148653046,2147527232,2167215104,2179000100,2177750976,2150201005,3111,-2,9,6541
1349629388,5804,61.9399986267089840,23.2577991485595700,36.5718002319335940,264.5693054199219000,-17.1321601867675780,23.2533493041992200,27.2436790466308600,73,127,86,62,48,12908,2147914925,2148832521,2148670875,2147531675,2168201252,2179014290,2176459684,2150152128,3307,-2,9,25928
1349629444,5803,60.0800018310546900,23.4524002075195300,36.5397987365722660,264.7308044433594000,-22.9308395385742200,23.4325904846191400,27.1668891906738280,74,125,87,64,50,12895,2148140406,2149118902,2148945910,2147548388,2173639798,2187089481,2183942720,2150962166,3144,-1,9,24984
1349629521,5803,58.2299995422363300,23.4743003845214840,36.5435981750488300,265.6418151855469000,-24.1510391235351560,23.4703407287597660,27.1156196594238280,73,126,86,63,50,12896,2148201115,2149153380,2148948406,2147555346,2174655936,2187241581,2183073910,2150913581,3229,-2,9,51406
1349629620,5807,56.5000000000000000,23.5673999786376950,36.5350990295410160,266.0736999511719000,-26.9117603302001950,23.5557708740234380,27.0651397705078120,72,127,86,64,49,12899,2148437833,2149443995,2149351616,2147622052,2180225892,2194497700,2189191049,2151733897,258,-2,9,62849
1349629807,5803,51.9099998474121100,24.0951995849609380,36.5093994140625000,265.7284851074219000,-43.5279884338378900,24.0710201263427730,26.8777999877929700,69,128,86,63,49,12886,2148965641,2149964086,2149619940,2147610230,2191626834,2207479753,2198456210,2152841234,3231,-2,9,6336
1349629841,5805,51.1300010681152340,24.1007995605468750,36.5093002319335940,266.0228881835937500,-44.3069992065429700,24.0952205657959000,26.8568592071533200,69,129,86,64,49,12866,2149120566,2150137197,2149770176,2147625974,2195251373,2211995574,2201939382,2153351259,3180,-2,9,23429
1349629926,5805,49.9500007629394500,24.2208003997802730,36.5014991760253900,265.9877929687500000,-47.8459396362304700,24.2052192687988280,26.8156108856201170,68,127,86,64,49,12889,2149276589,2150285705,2149852809,2147625453,2199355812,2216883931,2205556132,2153776182,3030,-2,9,63333
1349630062,5805,47.6300010681152340,24.5286998748779300,36.4953002929687500,264.3453063964844000,-58.0251197814941400,24.5220909118652340,26.7580299377441400,69,126,86,62,49,12881,2149728905,2150780973,2150294043,2147664603,2209350308,2227469357,2213354496,2155018020,1616,-2,9,21409
1349630161,5804,45.8699989318847660,24.6548995971679700,36.4931983947753900,262.8988952636719000,-62.2047996520996100,24.6524200439453120,26.7650299072265620,68,124,87,62,48,12889,2149954477,2150950546,2150406153,2147690578,2214765092,2232014692,2215440018,2155320539,1441,-2,10,25889
1349630348,5806,43.9399986267089840,25.4069995880126950,36.4486999511718750,255.6876983642578000,-84.9319610595703100,25.3633403778076170,26.7824497222900400,64,125,86,64,47,12883,2150064493,2150978002,2150378212,2147701248,2216191881,2230581257,2212021686,2154980827,1343,-1,9,723
1349630664,5806,41.9199981689453100,25.6175994873046880,36.4345016479492200,255.1224975585937500,-92.8661575317382800,25.6124706268310550,26.7101001739501950,63,124,85,64,48,12887,2149192512,2149809929,2149180452,2147607561,2195955977,2202159625,2186845750,2151956022,90,-2,9,34620
1349630723,5806,40.6599998474121100,25.7542991638183600,36.4250984191894500,254.7691955566406200,-97.3679199218750000,25.7540493011474600,26.6703300476074220,63,125,87,63,49,12886,2151261147,2152142601,2151275245,2147814656,2245783195,2264823414,2237440356,2158788242,3505,-2,10,4334
1349630822,5809,38.9599990844726560,26.0121994018554700,36.4099998474121100,253.3963928222656200,-105.1781005859375000,26.0000591278076170,26.6327095031738280,63,124,85,65,50,12883,2151710884,2152576164,2151753883,2147949906,2252588937,2270519460,2240135451,2159254098,197,-2,10,33887
1349631342,5805,36.8100013732910160,27.0086002349853500,36.3315010070800800,242.5565032958984400,-138.0552978515625000,27.0413894653320300,26.6916198730468750,62,122,86,62,49,12893,2152369389,2153158262,2152430253,2148257270,2263113654,2278848365,2244272274,2160216548,575,-1,9,55032